Flag for Lithuania Weather past 2 weeks in Vilnius, Lithuania

Now
32 °F

Ice fog.


Feels Like: 24 °F
Forecast: 32 / 37 °F
Wind: 9 mph from South

Location: Vilnius Airport

Current Time: Mar 4, 2015 at 9:35:23 AM

Latest Report: Mar 4, 2015 at 8:50 AM


Visibility: 3 mi

Pressure: 29.89 "Hg

Humidity: 93%

Dew point: 30 °F

Location of VilniusLocation

Historic Weather in Vilnius — Graph

°F

Vilnius temperature yesterday

Maximum temperature yesterday: 39 °F (at 2:50 PM)
Minimum temperature yesterday: 36 °F (at 3:50 AM)
Average temperature yesterday: 37 °F

Past Weeks' High & Low Weather Summary

 TemperatureHumidityPressure
High43 °F (Feb 20, 2:50 PM)100% (Feb 18, 5:20 PM)30.77 "Hg (Feb 18, 5:20 PM)
Low18 °F (Feb 17, 8:20 AM)37% (Feb 17, 12:20 PM)29.45 "Hg (Mar 2, 8:50 PM)
Average35 °F89%29.94 "Hg
* Reported Feb 17 8:20 AM — Mar 4 8:20 AM, Vilnius, Weather by CustomWeather, © 2015

Note: Actual official high and low records may vary slightly from our data, if they occured in-between our weather recording intervals... More about our weather records

Advertising

Vilnius weather history for previous 24 hours

 ConditionsComfort  
Time TempWeatherWind HumidityBarometerVisibility
8:20 AM
Wed, Mar 4
30 °FIce fog.10 mph100%29.92 "Hg2 mi
7:50 AM30 °FIce fog.12 mph93%29.92 "Hg2 mi
7:20 AM30 °FIce fog.12 mph93%29.92 "Hg2 mi
6:50 AM28 °FPassing clouds.8 mph100%29.92 "Hg4 mi
6:20 AM30 °FPassing clouds.10 mph93%29.92 "Hg4 mi
5:50 AM32 °FPassing clouds.9 mph93%29.92 "Hg4 mi
5:20 AM32 °FOvercast.9 mph93%29.92 "Hg4 mi
4:50 AM34 °FOvercast.7 mph87%29.92 "Hg4 mi
4:20 AM34 °FOvercast.8 mph87%29.92 "Hg4 mi
3:50 AM34 °FOvercast.8 mph87%29.92 "Hg4 mi
3:20 AM34 °FOvercast.9 mph87%29.89 "Hg4 mi
2:50 AM34 °FOvercast.10 mph87%29.89 "Hg4 mi
2:20 AM36 °FOvercast.10 mph87%29.89 "Hg4 mi
1:50 AM36 °FOvercast.10 mph87%29.89 "Hg4 mi
1:20 AM36 °FOvercast.9 mph87%29.89 "Hg4 mi
12:50 AM36 °FLight rain. Partly cloudy.8 mph87%29.89 "Hg4 mi
12:20 AM36 °FLight rain. Partly cloudy.12 mph87%29.89 "Hg4 mi
11:20 PM
Tue, Mar 3
36 °FPartly cloudy.9 mph81%29.86 "HgN/A
10:50 PM36 °FPartly cloudy.8 mph81%29.86 "HgN/A
10:20 PM36 °FPartly cloudy.14 mph81%29.86 "HgN/A
9:50 PM36 °FPartly cloudy.13 mph81%29.83 "HgN/A
9:20 PM36 °FPartly cloudy.13 mph81%29.83 "HgN/A
8:50 PM36 °FPartly cloudy.14 mph81%29.83 "HgN/A
8:20 PM37 °FMostly cloudy.13 mph75%29.80 "HgN/A
7:50 PM37 °FMostly cloudy.12 mph75%29.80 "HgN/A
7:20 PM37 °FPartly cloudy.12 mph75%29.80 "HgN/A
6:50 PM37 °FPartly cloudy.10 mph75%29.80 "HgN/A
6:20 PM37 °FPartly cloudy.15 mph81%29.77 "HgN/A
5:50 PM37 °FBroken clouds.14 mph81%29.77 "HgN/A
5:20 PM37 °FBroken clouds.13 mph81%29.77 "HgN/A
4:50 PM39 °FMore clouds than sun.14 mph75%29.74 "HgN/A
4:20 PM39 °FMore clouds than sun.13 mph75%29.74 "HgN/A
3:50 PM39 °FMore clouds than sun.13 mph81%29.74 "HgN/A
3:20 PM37 °FMore clouds than sun.12 mph87%29.74 "HgN/A
2:50 PM39 °FMore clouds than sun.12 mph81%29.71 "HgN/A
2:20 PM37 °FMore clouds than sun.13 mph87%29.71 "HgN/A
1:50 PM37 °FMore clouds than sun.14 mph87%29.71 "HgN/A
1:20 PM37 °FSprinkles. More clouds than sun.15 mph87%29.68 "Hg4 mi
12:50 PM37 °FSprinkles. More clouds than sun.13 mph87%29.68 "Hg4 mi
12:20 PM37 °FMore clouds than sun.13 mph87%29.68 "Hg4 mi
11:50 AM37 °FSprinkles. Fog.13 mph93%29.65 "Hg2 mi
11:20 AM37 °FSprinkles. Fog.13 mph93%29.65 "Hg2 mi
10:50 AM36 °FMore clouds than sun.14 mph93%29.65 "Hg4 mi
10:20 AM36 °FMore clouds than sun.14 mph93%29.65 "Hg4 mi
9:50 AM36 °FMore clouds than sun.12 mph93%29.62 "Hg4 mi
9:20 AM36 °FMore clouds than sun.14 mph93%29.62 "Hg4 mi
Weather by CustomWeather, © 2015

See weather overviewHow to use our weather pages